Find Globalstar M003

NORAD ID: 25165 Int'l Des: 1998-008 Owner: GLOBT Country: US Constellation: globalstar operational
LEOCIRCULAR

現在のビュー

3D地球を読み込み中...

About Globalstar M003

Globalstar M003 (NORAD 25165) is a globalstar constellation satellite launched Feb 14, 1998 by GLOBT of US. It operates in LEO, CIRCULAR orbit with a mass of 450.00 kg.

Globalstar M003について

説明を読み込み中...

次回通過

Passes for default location (London). Set your location on the main map for personalized predictions.

高度履歴

Loading altitude history...

軌道要素

1 25165U 98008D 26195.35939922 -.00000186 00000-0 -10306-2 0 9998
2 25165 51.9784 162.2314 0008357 3.7546 162.5802 12.12002333280777
Epoch: Jul 14, 2026 • Age: 14 hours

現在のステータス

高度 1634.6 km
遠地点 / 近地点 N/A
速度 7.06 km/s
衛星直下点 41.42°N, 30.87°E
打ち上げ日 Feb 14, 1998
運用期間 28.4 years
タイプ communications

技術仕様

分類 Payload
質量 450.00 kg
乾燥質量 380.00 kg
総質量 450.00 kg
長さ 1.50 m
直径 0.60 m
スパン 12.00 m
形状 Box + 2 Pan
製造者 LOR
バスタイプ LS-400
フェーズステータス In Orbit
所有者/国 GLOBT/US

Most Searched